Powrót do katalogu

COSMOS 2188

AktywnyMilitariaLEO
NORAD 21977·PAYLOAD·🇷🇺 Russia

Wystrzelony Jun 3, 1992 z Plesetsk Cosmodrome

Loading…

Następne Przeloty (najbliższe 24 godziny)

TLE

ŚwieżeSource: Space-Track

Epoka: Sep 14, 2026, 14:02 UTC

1 21977U 92030B   26257.58501257 -.00000016  00000-0 -14556-5 0  9990
2 21977  74.0018 292.1150 0057401 132.5008 302.5153 12.57554859573717

Śledź COSMOS 2188 w czasie rzeczywistym z AllMySat

Download on the App Store